{"data":{"norad_id":27632,"epoch":"2026-05-24T07:46:38.859168Z","epoch_age_seconds":140273,"freshness":"FRESH","line1":"1 27632U 02062A   26144.32406087 -.00000074  00000+0  00000+0 0  9997","line2":"2 27632   9.3940  57.1533 0005965   0.3420 191.9185  1.00270898 43944","mean_motion":1.00270898,"eccentricity":0.0005965,"inclination_deg":9.394,"raan_deg":57.1533,"arg_perigee_deg":0.342,"mean_anomaly_deg":191.9185,"bstar":0,"rev_number":4394,"period_min":1436.1096077947,"perigee_km":35761.692210382,"apogee_km":35811.995032263,"semimajor_km":42164.980621323,"source":"CELESTRAK","updated_at":"2026-05-25T13:38:13.814253Z"}}